Temp
13 14 14 16 19 16 16 19 18 20 21 21 22 23 24 24 25 26 19 19 20 20 19 19 20 19 19 20 20 19 19 19 18 18 18 18 18 18 18 18 18 18 18 18 18 18 17 17 17
13 14 15 13 17 17 18 16 19 21 22 20 21 22 23 26 23 20 18 18 19 19 19 19 20 19 19 19 19 19 19 19 18 18 18 18 18 18 18 18 18 18 17 17 17 17 17 17 16
14 13 16 16 14 18 19 17 21 21 21 21 22 22 23 25 21 21 20 19 19 19 19 19 19 19 19 19 19 19 19 19 18 19 18 18 18 18 18 18 18 18 17 17 17 17 17 17 17
13 14 13 14 16 14 18 18 19 20 21 20 21 23 23 21 21 20 19 18 19 19 19 19 19 19 19 19 19 19 19 19 19 19 19 19 18 18 17 18 18 17 17 17 16 16 16 17 17
13 12 14 12 14 14 15 17 18 19 19 20 21 23 23 20 19 20 18 18 19 19 19 19 19 19 19 19 19 19 19 18 19 19 19 19 18 18 17 18 18 17 17 17 16 16 16 17 18
13 12 12 14 16 14 15 17 17 18 19 20 20 21 22 17 18 18 18 18 19 19 19 19 19 19 19 19 19 19 19 19 19 19 19 18 18 18 17 18 17 17 17 18 17 17 16 17 18
12 12 12 13 14 14 15 16 16 17 18 19 20 20 21 20 18 18 18 18 19 19 19 19 19 19 19 19 19 19 19 19 19 19 18 18 18 17 17 17 17 17 18 17 17 17 18 18 17
11 11 11 12 16 15 16 17 17 17 18 18 20 20 21 18 19 18 18 18 19 19 19 18 18 19 19 19 19 19 19 19 19 18 18 17 17 17 17 17 17 17 18 17 17 17 17 17 17
10 11 12 13 13 14 14 15 15 14 15 17 18 18 15 17 19 18 18 18 18 18 18 18 18 18 18 18 19 19 19 18 18 18 18 17 16 16 16 16 16 17 17 17 16 16 17 16 17
9 9 12 13 12 10 11 12 12 14 14 15 17 15 15 16 18 18 18 18 18 18 18 18 18 18 18 18 18 18 18 18 17 18 17 16 16 16 16 16 17 17 17 17 17 17 17 16 16
6 8 7 8 8 8 9 10 12 12 13 14 13 13 14 15 15 19 19 19 18 18 18 18 18 17 18 17 17 17 17 18 17 17 17 16 16 16 16 16 16 16 16 16 16 16 16 16 16
4 5 5 7 6 7 7 8 9 10 12 13 13 13 14 14 15 15 19 19 18 18 18 18 18 18 17 17 17 17 17 17 17 17 16 16 15 15 16 15 15 16 16 16 16 15 15 15 16
3 4 5 5 6 6 7 7 8 9 11 12 13 13 13 14 14 15 15 19 19 18 18 18 18 17 17 17 16 16 16 17 17 17 16 16 15 15 16 16 16 16 16 16 15 15 15 14 15
3 4 4 5 6 6 6 7 8 9 10 11 12 12 13 13 11 9 9 13 19 18 19 18 18 17 17 17 16 16 16 16 16 16 16 16 15 15 16 16 16 16 16 16 15 15 14 14 14
3 2 4 5 5 6 7 6 6 4 7 10 11 11 11 8 6 5 5 5 7 19 18 18 17 17 16 16 16 16 16 16 16 16 16 16 15 15 16 16 16 16 16 16 15 15 14 14 14
2 2 1 4 4 5 6 5 2 3 6 5 5 4 4 4 4 3 2 2 4 8 17 19 18 17 16 16 16 16 16 16 16 16 15 16 16 16 16 16 16 16 16 15 15 14 14 14 14
0 -1 -1 1 3 4 3 4 1 1 1 1 1 1 1 1 2 1 -0 -0 1 3 9 19 17 16 16 16 15 15 15 15 16 15 15 16 16 16 16 16 16 16 16 15 15 14 14 13 13
-2 -2 -1 -1 2 2 2 1 -1 -0 -1 -2 -1 -1 -1 -1 -0 -1 -1 -2 -1 2 8 17 17 16 16 15 15 15 15 15 15 15 16 16 16 15 16 16 16 16 16 15 14 14 13 13 13
-2 -4 -3 -1 1 1 1 0 -1 -2 -2 -2 -3 -3 -3 -2 -2 -2 -3 -3 -2 -1 1 4 15 16 15 15 14 14 14 14 14 15 16 16 16 15 16 16 16 17 16 15 14 14 14 12 12
-1 -2 -1 -0 1 0 0 -0 -1 -2 -4 -4 -4 -4 -4 -3 -3 -3 -4 -4 -4 -3 -2 -0 5 11 15 15 15 14 14 14 15 14 15 15 15 15 16 16 15 17 16 14 14 14 12 11 12
-1 -2 -2 -2 -1 -0 -0 0 -2 -3 -3 -3 -4 -4 -4 -4 -4 -3 -4 -5 -5 -4 -3 -2 0 4 13 15 14 14 14 14 14 13 14 14 15 16 16 16 16 16 16 14 14 14 13 12 12
-2 0 -3 -4 -3 -1 0 2 -2 -3 -3 -4 -5 -5 -4 -5 -4 -4 -5 -5 -5 -5 -4 -3 -1 3 6 13 14 14 14 14 14 13 14 14 15 16 16 16 16 16 15 14 13 14 14 13 12
-1 -3 -3 -3 -4 -4 1 0 -4 -3 -4 -5 -5 -5 -5 -5 -5 -5 -5 -6 -6 -6 -5 -4 -2 2 3 8 14 14 14 14 13 13 13 13 14 15 15 16 16 15 15 15 14 14 13 13 13
-3 -3 -2 -3 -5 -5 -1 -1 -5 -5 -5 -5 -5 -5 -5 -5 -5 -5 -6 -6 -6 -6 -6 -5 -4 0 3 3 9 14 14 14 13 14 13 13 13 14 15 15 15 15 15 15 14 15 14 13 13
-7 -7 -8 -5 -7 -3 -2 -4 -6 -5 -5 -5 -6 -6 -5 -5 -6 -6 -6 -7 -7 -7 -7 -6 -5 -3 0 3 4 9 14 14 14 14 14 13 13 13 13 14 15 15 15 15 15 14 14 14 14
-8 -11 -8 -7 -6 -3 -3 -5 -5 -6 -5 -5 -6 -6 -5 -6 -6 -6 -7 -7 -7 -8 -7 -7 -6 -5 -2 1 2 6 10 13 14 14 14 14 13 13 14 14 14 14 15 15 15 14 14 14 14
-7 -9 -10 -8 -7 -6 -10 -7 -6 -5 -5 -6 -6 -6 -7 -6 -6 -6 -7 -7 -8 -8 -8 -7 -7 -6 -4 -1 1 3 6 10 13 13 14 14 14 13 13 14 14 14 14 14 14 14 13 13 14
-7 -12 -9 -11 -9 -9 -10 -12 -5 -7 -6 -6 -7 -7 -7 -6 -6 -6 -7 -8 -8 -9 -8 -8 -7 -7 -5 -2 -0 0 3 7 10 12 14 14 13 14 13 14 14 14 14 14 14 13 14 14 14
-8 -10 -13 -13 -11 -7 -9 -6 -10 -9 -8 -8 -8 -8 -8 -7 -6 -7 -7 -8 -8 -9 -9 -8 -8 -8 -7 -4 -2 0 0 5 8 10 12 13 14 13 14 14 14 14 14 14 14 13 13 14 14
-18 -14 -15 -9 -10 -15 -11 -8 -11 -10 -10 -8 -8 -8 -8 -7 -7 -7 -7 -8 -9 -9 -9 -9 -8 -8 -8 -6 -4 -2 -0 2 6 7 9 11 13 13 14 14 13 13 13 14 14 13 13 13 13
Height
794 792 792 792 802 807 804 792 786 781 776 765 761 762 760 758 763 769 747 747 749 752 760 768 775 780 783 786 791 795 796 801 804 807 810 812 815 818 822 823 825 827 829 830 833 835 836 837 839
794 792 792 798 803 801 790 790 783 772 763 762 762 759 759 754 746 746 748 747 750 754 761 767 773 778 783 785 790 793 797 800 805 808 811 813 815 820 823 825 827 829 830 832 835 837 838 839 841
794 794 795 797 802 783 783 782 766 761 759 762 762 755 753 749 743 741 743 746 752 756 761 766 773 777 784 785 791 793 797 801 806 809 812 813 816 820 824 827 828 830 832 834 836 838 840 842 843
795 795 799 800 786 789 776 769 766 764 756 761 758 757 748 741 740 740 743 747 750 758 760 767 771 777 781 785 790 794 798 801 806 810 813 814 816 822 824 828 830 833 834 836 838 840 843 844 845
797 799 800 799 786 781 777 771 767 765 762 758 756 754 748 742 741 742 743 746 748 755 761 767 772 777 780 786 790 794 798 803 806 811 813 816 818 823 826 829 833 835 837 839 840 843 845 847 848
799 802 803 787 771 779 774 768 766 764 758 756 758 756 746 743 743 743 743 747 752 755 761 767 773 777 781 785 790 794 798 804 808 812 814 817 819 824 828 831 835 838 839 842 844 845 847 849 850
800 802 795 784 776 777 773 766 767 764 761 757 752 756 745 741 743 744 744 746 754 758 763 768 772 775 781 784 790 793 797 802 808 812 816 818 821 824 829 833 837 840 842 845 846 848 850 852 853
801 801 794 782 768 769 766 762 761 762 754 752 749 752 748 746 744 746 747 746 752 757 763 767 771 775 780 786 789 793 796 800 808 812 817 819 823 826 830 835 839 841 844 847 848 851 853 854 856
802 802 784 779 779 772 769 768 764 762 760 754 749 748 755 745 745 748 749 748 750 756 760 764 771 773 779 784 789 793 796 801 807 812 817 820 825 828 832 836 840 843 845 848 850 852 854 857 858
804 797 778 778 779 783 780 777 773 765 761 758 752 752 752 749 748 746 748 747 748 751 755 762 767 771 777 783 787 793 797 801 806 812 816 820 825 829 832 836 841 844 847 850 853 854 857 859 860
807 792 796 791 792 796 789 780 775 769 762 761 763 759 757 754 752 749 745 747 748 749 753 759 763 768 775 780 785 791 794 799 805 811 815 819 825 830 833 837 842 846 848 851 854 856 858 860 862
819 807 807 801 801 796 795 791 783 775 766 762 763 762 760 758 755 753 748 747 747 749 751 754 760 764 772 778 782 786 792 797 803 809 814 818 824 829 832 837 842 846 849 851 854 857 859 861 864
818 811 807 804 801 797 790 787 787 775 770 764 761 760 758 758 755 753 750 745 744 747 750 754 756 761 768 774 780 784 789 795 800 807 812 817 822 827 831 836 841 845 849 852 855 858 860 862 865
817 812 806 801 796 790 787 780 779 770 770 764 762 761 760 761 759 755 751 746 742 742 745 750 753 757 764 770 776 782 785 792 799 804 810 816 821 825 830 835 840 845 849 852 856 858 860 863 866
817 816 806 798 797 788 780 780 778 783 771 763 763 760 760 765 764 764 762 753 746 738 739 743 747 752 759 766 772 778 783 788 795 801 808 812 818 824 829 834 839 844 849 853 856 859 862 865 867
820 817 821 805 800 789 785 781 794 789 768 775 775 775 773 771 770 769 764 755 746 739 737 738 743 744 754 761 768 774 779 785 791 798 805 810 816 821 827 832 838 843 848 852 856 859 863 866 869
833 844 833 815 805 800 801 787 802 799 791 789 788 786 782 777 773 769 763 756 748 741 732 732 740 742 748 757 765 773 777 783 788 795 802 808 814 819 825 830 837 842 847 851 855 859 863 866 870
852 847 836 829 812 803 801 807 812 807 802 804 801 797 792 787 782 776 769 761 753 742 729 728 736 739 744 752 761 770 777 783 787 792 798 806 812 817 823 829 835 840 846 851 855 858 863 867 870
852 857 847 828 815 814 809 811 816 816 809 806 807 804 799 794 788 780 774 767 754 745 736 733 726 733 737 746 754 764 771 779 784 789 794 802 809 814 819 826 832 838 844 850 854 858 862 867 871
842 841 833 820 816 819 808 812 816 819 823 821 817 810 804 796 787 778 772 768 756 755 741 733 720 726 726 737 746 757 765 773 780 786 791 799 805 811 817 823 829 835 842 848 853 856 862 866 870
840 841 834 837 821 810 812 808 823 824 823 822 818 816 810 803 795 784 779 770 761 757 750 732 729 711 725 733 741 753 763 771 778 785 790 796 802 808 814 820 826 833 838 844 850 854 858 864 869
844 828 837 837 836 813 809 792 822 825 823 823 822 817 811 806 801 793 783 778 772 757 755 748 734 730 728 734 735 743 751 762 768 776 783 790 798 804 810 818 824 830 836 841 847 852 856 860 865
840 836 833 828 837 836 802 804 840 829 830 830 830 824 819 813 807 796 793 785 774 765 764 750 743 730 739 731 733 739 749 758 765 773 782 789 795 801 808 815 821 827 832 838 843 849 854 858 862
849 835 825 828 843 852 821 818 854 846 848 841 837 831 825 817 810 803 794 792 782 773 763 753 754 739 723 729 732 739 743 752 761 767 776 783 791 797 805 811 817 823 829 834 839 846 851 855 859
865 860 873 852 867 838 826 840 863 855 852 848 844 837 830 823 814 807 800 791 786 779 768 755 762 745 735 733 733 738 741 747 753 759 767 777 784 791 798 805 811 817 824 831 837 842 847 851 855
885 902 889 889 873 845 840 857 852 855 851 848 846 840 832 826 822 813 810 804 792 782 774 771 763 750 748 739 743 739 741 744 750 757 763 771 778 785 792 800 806 812 820 826 833 839 843 848 852
885 901 905 895 883 873 900 871 858 852 849 847 844 841 835 830 826 821 814 807 800 793 785 778 766 758 753 742 734 743 740 740 747 752 760 766 773 779 787 795 801 808 815 821 828 834 839 843 848
890 911 903 914 908 908 903 910 858 860 854 850 846 844 840 831 826 820 815 808 807 794 779 783 776 766 750 743 747 742 742 739 742 747 755 761 769 774 780 789 797 803 809 815 822 829 834 839 843
901 908 926 931 922 899 911 870 880 870 862 858 853 847 844 834 829 825 823 820 809 795 794 784 767 762 759 757 746 743 743 738 740 743 751 757 761 768 773 781 788 794 800 808 815 821 828 833 838
936 930 938 913 918 948 927 885 873 870 868 859 854 848 844 839 829 822 818 814 811 810 801 789 772 761 759 754 748 747 744 740 738 743 746 751 758 762 768 775 781 787 793 800 807 814 819 825 830
Wind_Speed
22 9 3 2 1 1 5 6 3 3 3 5 6 5 10 3 6 4 4 20 25 37 38 36 36 34 31 30 32 30 31 30 30 28 27 26 26 24 24 25 25 23 23 23 22 22 20 20 20
17 5 2 2 2 6 5 5 7 8 3 1 3 2 3 9 4 2 4 18 28 35 37 35 38 35 33 32 34 34 33 33 31 29 28 27 26 26 26 27 26 23 21 21 22 22 20 20 20
6 3 1 2 4 13 6 6 16 9 7 0 3 3 4 5 2 3 5 23 28 34 35 37 39 37 34 33 34 35 35 36 32 31 28 28 27 27 27 27 25 23 22 23 23 22 22 21 21
6 3 2 3 16 5 6 6 3 5 8 6 2 6 3 3 2 3 13 25 33 33 35 39 39 39 37 35 34 35 36 36 34 31 28 27 30 29 29 28 24 24 26 23 24 24 21 21 23
1 2 3 5 8 5 4 5 2 4 3 2 4 7 4 3 3 6 22 27 35 36 34 40 40 39 38 36 34 35 37 34 35 32 29 30 32 30 29 26 26 28 27 25 26 23 22 24 22
0 1 3 10 17 4 4 7 3 5 5 3 2 3 7 4 2 13 25 26 31 35 35 38 40 39 38 36 36 34 36 34 33 32 29 31 31 28 29 27 27 27 26 24 24 22 23 23 24
2 1 6 11 14 9 5 5 5 9 9 8 2 3 4 4 4 11 23 28 29 32 35 36 39 39 38 37 35 35 35 36 34 32 30 30 30 30 29 27 26 26 25 23 22 22 22 21 22
1 2 5 7 13 12 6 6 3 7 11 4 4 5 2 8 3 14 20 29 29 32 35 35 38 38 39 36 35 33 35 35 34 32 30 31 30 31 30 27 26 25 25 23 23 22 23 21 19
1 4 11 7 2 4 2 3 3 3 6 3 2 3 9 17 9 14 19 24 28 30 33 35 37 37 38 38 34 33 33 34 34 32 30 32 29 29 29 26 26 25 25 24 22 23 23 21 19
3 5 7 2 4 7 12 8 12 6 5 4 4 13 24 22 8 15 16 22 29 32 34 36 39 36 36 36 36 33 33 34 35 35 34 31 28 28 29 29 27 26 25 25 20 19 20 18 18
5 7 11 10 13 15 13 14 8 6 8 1 4 14 18 18 18 15 21 23 28 30 33 36 39 37 36 34 36 33 34 36 37 36 35 31 31 31 31 28 26 26 24 21 20 20 22 21 17
7 6 11 9 12 15 14 14 14 14 12 12 10 13 14 15 14 16 21 23 26 28 33 36 39 39 36 34 34 34 33 35 38 37 35 34 30 28 31 26 27 26 24 22 21 21 20 20 17
6 7 8 16 14 13 17 16 15 18 17 19 16 13 12 10 16 19 25 27 29 31 31 36 37 40 38 35 32 35 35 36 39 38 36 33 33 31 33 31 28 27 25 23 22 20 19 18 17
5 14 17 12 17 16 16 17 8 9 15 22 18 16 15 13 17 22 28 30 33 33 39 34 42 40 39 36 34 35 35 33 40 39 36 31 34 34 36 33 29 29 25 23 21 20 19 19 19
11 11 14 7 9 13 7 7 4 19 16 17 17 14 11 13 19 21 25 27 30 33 40 41 39 43 40 37 37 35 36 37 40 40 35 35 36 36 38 34 31 31 26 24 22 20 21 21 20
7 4 9 16 13 9 10 3 16 22 14 14 16 15 16 17 19 23 27 30 32 27 29 43 40 44 41 38 37 35 37 38 39 39 38 38 37 41 40 37 33 31 27 25 24 24 22 22 21
5 9 16 11 12 17 12 10 17 19 18 18 18 18 17 18 22 29 32 33 33 31 26 40 37 39 39 38 35 33 38 36 40 39 38 37 35 42 42 39 33 32 29 28 27 25 24 22 22
14 14 10 16 12 17 16 9 14 18 20 18 18 18 18 18 20 28 32 32 33 31 18 25 38 37 43 37 37 32 33 32 33 39 40 37 35 42 43 40 35 33 30 29 28 28 24 22 21
8 5 9 13 8 14 9 8 15 17 22 22 20 19 20 20 23 27 30 30 35 34 28 24 24 42 43 39 35 34 33 32 33 38 40 37 37 43 45 42 35 31 29 32 31 28 27 21 22
10 13 4 10 15 10 5 9 11 16 17 17 18 20 20 21 21 28 35 34 36 33 35 31 19 6 43 42 42 37 36 34 37 37 39 37 39 42 44 44 37 33 32 33 32 30 20 17 24
18 6 8 18 23 13 12 4 11 11 16 18 19 17 20 20 21 22 30 35 36 36 34 36 28 23 13 40 37 33 31 26 25 27 33 38 41 42 42 42 38 38 36 37 37 33 28 19 24
14 16 21 16 4 1 2 2 8 13 15 20 20 21 20 21 20 18 27 32 33 38 33 33 28 18 15 22 38 38 34 29 30 35 37 40 43 43 41 40 39 38 37 37 37 36 32 26 24
11 24 14 7 3 3 7 1 9 8 16 22 19 19 19 20 19 19 25 31 34 36 32 33 31 16 15 8 29 39 31 29 31 32 31 32 36 41 42 40 40 40 39 37 39 38 33 32 29
19 11 4 3 1 4 10 4 6 9 14 16 17 17 18 18 19 20 28 29 32 36 36 36 32 24 18 16 8 29 35 31 31 31 31 32 36 39 42 40 43 40 40 40 40 40 39 34 31
13 8 4 5 5 1 9 7 1 7 11 13 15 16 16 16 17 17 20 29 33 35 37 37 32 28 22 14 11 8 24 34 34 37 36 33 34 35 39 43 45 43 42 42 41 40 39 37 35
6 4 3 2 4 5 7 2 2 3 6 9 10 12 15 15 15 17 22 25 30 34 35 33 34 31 27 19 10 7 11 22 30 35 35 37 36 37 41 46 42 42 42 42 41 40 39 40 36
6 5 3 2 1 3 4 4 4 7 11 12 13 15 16 14 15 15 23 25 29 30 30 31 33 30 28 24 18 9 6 10 21 33 35 35 36 36 40 43 40 39 42 41 41 37 38 37 39
4 1 4 4 5 5 4 4 4 11 15 15 16 14 15 15 15 15 22 26 26 30 35 31 27 28 32 29 21 16 8 5 12 21 33 36 35 36 41 43 40 39 40 41 40 36 38 37 37
5 4 4 3 2 1 3 4 5 6 9 12 12 12 12 14 14 13 18 21 24 29 31 33 33 34 32 28 25 23 14 10 6 12 19 33 40 40 44 46 44 44 43 42 40 35 35 38 35
4 4 4 3 6 1 1 6 4 6 7 10 10 11 11 10 12 15 20 21 25 24 27 30 34 38 35 33 28 22 21 14 11 5 7 15 32 39 42 44 43 42 42 43 42 36 36 40 36
Wind_Direction
333 331 322 27 147 75 222 229 284 212 228 206 151 171 199 176 184 218 314 188 163 164 165 169 172 170 164 163 161 158 156 155 152 149 148 145 143 141 138 131 128 123 119 120 121 119 114 108 111
339 358 27 86 187 224 223 215 225 229 245 155 193 167 199 233 238 273 113 173 168 163 165 166 173 168 165 161 160 157 157 155 150 151 151 150 147 147 140 133 128 123 120 123 127 124 118 111 115
345 351 106 169 206 233 233 211 223 235 238 97 245 244 182 229 225 217 194 169 164 164 166 167 173 166 163 162 162 160 158 153 155 148 147 150 152 150 141 136 134 132 129 126 130 128 123 117 115
349 8 46 228 229 251 201 215 246 251 261 195 229 266 263 257 149 215 168 167 161 167 167 170 173 167 165 166 164 162 160 156 156 151 150 144 143 141 138 138 137 135 129 124 130 131 126 117 121
33 60 251 249 249 252 255 276 217 233 246 240 184 252 251 355 284 181 168 166 165 166 169 171 173 169 167 168 166 165 161 160 158 155 151 145 143 142 143 141 135 132 128 123 129 130 122 119 124
48 91 240 252 250 217 245 242 236 246 242 286 302 256 261 345 212 180 170 169 169 168 170 170 174 171 171 171 169 167 166 164 162 160 155 149 149 151 147 141 140 139 131 129 131 129 123 122 121
151 153 252 272 265 265 230 224 228 257 265 247 251 271 289 313 239 187 171 165 171 173 172 172 174 173 173 173 172 168 170 168 169 166 160 154 154 152 148 143 144 143 141 134 141 133 127 129 123
171 197 252 235 258 270 222 225 218 218 275 263 161 243 266 346 258 182 169 164 169 174 177 174 175 173 172 173 174 170 171 172 172 167 164 156 155 151 149 146 146 146 146 142 136 138 129 127 130
279 238 246 256 254 254 23 348 337 310 272 285 287 31 339 328 185 176 170 167 168 177 179 178 177 173 173 173 173 170 171 171 170 169 164 156 151 149 147 147 150 150 151 153 145 143 141 135 131
199 231 249 198 15 355 330 345 329 335 326 302 316 351 352 352 228 180 194 180 178 178 180 180 177 175 173 172 171 170 168 169 167 167 162 155 154 155 151 152 153 152 151 159 157 150 150 148 129
307 255 352 356 353 354 335 319 320 302 282 190 352 328 335 338 348 228 207 196 193 184 177 183 177 175 172 171 170 169 168 165 167 166 162 160 160 158 154 153 153 152 153 151 161 160 158 165 150
328 313 322 314 336 331 323 311 302 292 271 306 308 309 312 321 327 342 241 216 192 190 187 182 178 172 172 169 168 168 168 165 168 168 164 162 159 159 157 155 158 159 159 154 153 153 152 152 152
263 284 314 314 305 295 291 282 278 284 289 295 303 308 308 318 319 323 326 246 206 191 191 188 178 174 171 167 169 169 170 170 171 170 169 162 165 165 163 163 161 163 159 156 153 151 150 149 147
300 302 299 298 293 289 267 264 252 252 301 294 292 296 301 338 3 1 353 328 222 200 194 187 181 176 173 170 170 174 168 168 174 173 170 164 171 170 168 166 164 164 163 159 155 150 147 144 145
294 294 304 296 310 309 307 266 285 349 308 271 313 303 327 7 13 360 345 336 346 218 196 192 182 177 173 170 174 174 172 171 174 180 174 173 177 172 172 170 169 165 165 164 159 151 146 142 137
339 11 342 314 317 336 328 309 14 0 25 45 11 9 2 359 1 358 352 343 340 318 225 193 187 175 172 172 173 174 174 175 178 183 181 181 181 178 176 177 175 169 170 169 164 156 150 148 141
33 323 318 306 350 344 360 313 15 18 30 29 19 6 0 351 355 356 353 346 341 330 312 197 183 170 167 171 171 175 178 177 183 185 184 186 184 182 181 181 178 173 177 174 170 162 157 152 148
318 314 295 295 323 322 323 51 31 25 35 29 20 10 5 355 352 349 353 348 344 338 348 209 186 173 172 168 167 174 177 177 176 185 187 189 191 185 184 183 178 177 179 178 174 169 164 160 152
292 272 270 288 309 336 339 73 36 24 31 24 15 10 6 357 347 354 355 350 349 348 356 327 185 175 173 168 164 168 174 182 181 186 190 192 193 188 187 186 184 189 190 183 179 171 168 158 158
332 313 299 296 321 329 310 56 53 34 33 22 13 7 1 355 356 0 353 353 357 340 350 338 3 236 170 173 172 176 176 180 185 186 191 192 192 189 190 191 190 191 190 184 180 175 160 163 165
339 302 310 308 316 278 236 249 26 20 27 19 17 9 9 359 354 0 354 354 351 344 348 344 344 350 180 175 168 171 170 173 170 174 182 191 193 191 193 196 194 192 194 187 185 182 172 167 174
320 331 313 300 293 289 177 180 32 2 10 16 6 6 2 359 351 2 357 351 349 348 350 348 347 346 3 191 169 166 170 173 176 179 187 189 193 192 193 193 191 191 194 191 187 190 185 175 181
300 320 301 295 187 318 19 315 349 1 360 2 357 356 358 357 351 358 2 349 343 347 350 357 360 354 346 32 179 170 176 179 176 177 180 182 188 193 194 196 195 194 196 196 194 192 190 189 186
331 333 359 76 96 52 342 320 7 14 347 345 350 351 352 354 353 357 360 353 350 347 351 11 343 12 9 21 105 183 177 175 175 175 175 180 185 192 198 199 198 198 197 199 197 199 198 196 196
4 18 356 11 15 8 4 59 326 323 348 348 341 341 346 355 353 353 2 354 349 349 353 3 342 7 17 16 23 124 185 181 178 178 179 180 183 187 194 197 196 199 201 202 202 202 201 203 205
8 82 67 335 347 315 16 39 239 248 334 336 343 340 348 356 356 359 350 353 355 350 351 349 348 2 10 35 26 36 150 189 183 186 184 185 186 189 195 200 198 199 202 204 206 207 207 209 212
322 30 218 267 197 282 319 307 296 314 343 350 349 355 348 348 354 354 351 356 352 350 351 345 350 356 8 26 25 13 66 141 192 192 190 190 190 189 194 197 197 198 202 205 207 205 208 209 213
97 195 17 9 20 339 312 289 305 331 335 341 343 348 342 338 353 353 357 351 349 353 353 344 357 346 11 31 25 24 26 60 175 186 193 190 192 191 194 197 199 200 202 206 209 206 212 212 216
348 7 31 118 68 343 309 281 218 270 306 325 327 331 335 332 344 350 351 351 353 1 354 343 357 360 5 14 26 28 26 54 93 162 194 195 192 193 199 202 200 201 204 207 207 205 208 213 214
125 167 128 97 300 114 176 277 213 246 298 312 322 326 333 335 340 345 346 354 358 359 358 354 357 3 356 11 19 29 34 46 66 66 174 197 200 195 200 202 201 201 203 205 207 204 207 213 211